[[{"header":{"parameterUnit":"m.s-1","parameterCategory":1,"la1":30.2991,"la2":30.254,"lo1":-89.0895,"lo2":-89.0444,"dy":0.0017,"dx":0.0017,"nx":28,"ny":28,"refTime":"2023-04-22T21:00:00:Z","depth":0,"parameterNumber":2,"parameterNumberName":"U-component_of_WINDS"},"data":[0,0,0,0,0,0,0,0,0,0,0,0,0,0,0,0,0,0,0,0,0,0,0,0,0,0,0,0,0,0,0,0,0,0,0,0,0,0,0,0,0,0,0,0,0,0,0,0,0,0,0,0,0,0,0,0,0,0,-1.263,-1.2629,0,-1.2532,-1.2531,-1.253,-1.2507,-1.2508,-1.2508,-1.2509,-1.2405,-1.2402,-1.2398,0,0,0,0,0,0,0,0,0,0,0,0,0,-1.2795,-1.2792,-1.2631,-1.2629,-1.2628,-1.2532,-1.2531,-1.253,-1.2507,-1.2508,-1.2508,-1.2509,-1.2406,-1.2402,-1.2398,0,0,0,0,0,0,0,0,0,0,0,0,0,-1.2713,-1.2791,-1.2631,-1.2605,-1.2602,-1.2533,-1.2531,-1.2529,-1.2507,-1.2508,-1.2509,-1.251,-1.2407,-1.2402,-1.2397,-1.2345,0,0,-1.2382,-1.238,0,0,0,0,0,0,0,0,-1.2717,-1.2707,-1.261,-1.2607,-1.2603,-1.2533,-1.2551,-1.2467,-1.2506,-1.2543,-1.2509,-1.251,-1.2446,-1.2438,-1.2417,-1.234,-1.2336,-1.2381,-1.2378,-1.2376,-1.2375,0,0,0,0,0,0,0,-1.2723,-1.2711,-1.2591,-1.2609,-1.2604,-1.2597,-1.2587,-1.2535,-1.249,-1.254,-1.2538,-1.2527,-1.2445,-1.2422,-1.2415,-1.2334,-1.2381,-1.2377,-1.2374,-1.2372,-1.2208,-1.2206,0,0,0,0,0,0,-1.2734,-1.2716,-1.2595,-1.2589,-1.2664,-1.2594,-1.2582,-1.2554,-1.249,-1.2482,-1.2526,-1.2526,-1.2431,-1.2421,-1.2411,-1.2344,-1.2376,-1.2371,-1.2368,-1.2209,-1.2207,-1.2206,0,0,0,0,0,0,-1.2737,-1.2723,-1.2599,-1.2652,-1.2635,-1.259,-1.2559,-1.2552,-1.253,-1.248,-1.2472,-1.2511,-1.2431,-1.2418,-1.2362,-1.234,-1.2369,-1.2364,-1.2211,-1.2208,-1.2207,-1.2211,0,0,0,0,0,0,-1.2742,-1.2725,-1.2705,-1.2651,-1.2632,-1.2552,-1.2558,-1.2549,-1.2521,-1.252,-1.2464,-1.2456,-1.2431,-1.2369,-1.2356,-1.2334,-1.236,-1.2212,-1.221,-1.2207,-1.2213,-1.221,-1.2207,0,0,0,0,0,-1.2748,-1.271,-1.2705,-1.269,-1.2608,-1.2551,-1.254,-1.2513,-1.252,-1.2499,-1.2467,-1.2458,-1.2345,-1.2364,-1.2349,-1.2325,-1.2213,-1.221,-1.2208,-1.2214,-1.2211,-1.2207,0,0,0,0,0,0,-1.2762,-1.2703,-1.2696,-1.264,-1.26,-1.2547,-1.252,-1.251,-1.2467,-1.2468,-1.2435,-1.2422,-1.2367,-1.2341,-1.2362,-1.227,-1.2279,-1.2273,-1.2289,-1.2285,-1.2283,-1.229,-1.2356,0,0,0,0,0,-1.2759,-1.2719,-1.2669,-1.2624,-1.2605,-1.2566,-1.254,-1.2523,-1.248,-1.2464,-1.2427,-1.2386,-1.2341,-1.2312,-1.2268,-1.2209,-1.2196,-1.2185,-1.2182,-1.218,-1.2175,-1.214,-1.2134,-1.2196,-1.2196,-1.2197,0,0,-1.2751,-1.2714,-1.269,-1.2626,-1.2593,-1.2551,-1.2552,-1.2508,-1.2476,-1.2456,-1.2401,-1.2373,-1.2324,-1.2266,-1.2238,-1.2242,-1.2155,-1.2177,-1.2175,-1.2171,-1.2137,-1.2131,-1.2126,-1.2194,-1.2195,-1.2195,0,0,-1.2715,-1.2684,-1.2642,-1.261,-1.2562,-1.2536,-1.2526,-1.2474,-1.2455,-1.2399,-1.2383,-1.2344,-1.2267,-1.2233,-1.2205,-1.2156,-1.2145,-1.2142,-1.2127,-1.2093,-1.2089,-1.2084,-1.2064,-1.2058,-1.2138,-1.2138,-1.2138,0,-1.2712,-1.2649,-1.2622,-1.2578,-1.2549,-1.2531,-1.2488,-1.2457,-1.2396,-1.2376,-1.2381,-1.2284,-1.225,-1.2183,-1.2171,-1.215,-1.2136,-1.2148,-1.2092,-1.2087,-1.2082,-1.2063,-1.2056,-1.2137,-1.2138,-1.2138,-1.2138,0,-1.2646,-1.2602,-1.2574,-1.2517,-1.2485,-1.2442,-1.2407,-1.2378,-1.2363,-1.2336,-1.2278,-1.2237,-1.2183,-1.2166,-1.2151,-1.2096,-1.2099,-1.2099,-1.2107,-1.2077,-1.2058,-1.2051,-1.2137,-1.2137,-1.2137,-1.2137,0,0,-1.2615,-1.2544,-1.2533,-1.2506,-1.2451,-1.2416,-1.2372,-1.232,-1.2295,-1.2253,-1.2214,-1.2149,-1.2148,-1.2117,-1.2097,-1.2068,-1.2029,-1.207,-1.2069,-1.2063,-1.1964,-1.1964,-1.1956,-1.2023,-1.2021,-1.202,-1.1967,0,-1.2571,-1.2492,-1.2466,-1.2399,-1.2358,-1.2339,-1.23,-1.2261,-1.2235,-1.2195,-1.2165,-1.212,-1.2122,-1.2103,-1.2073,-1.204,-1.2009,-1.2044,-1.1983,-1.1981,-1.1994,-1.1946,-1.1946,-1.1899,-1.196,-1.1959,-1.1958,0,-1.251,-1.2468,-1.2397,-1.2346,-1.2327,-1.2293,-1.2243,-1.2205,-1.216,-1.2143,-1.2108,-1.2091,-1.2041,-1.2054,-1.1985,-1.2009,-1.1983,-1.1963,-1.196,-1.1952,-1.1967,-1.1935,-1.1883,-1.1875,-1.1947,-1.1948,-1.1948,0,-1.2492,-1.2418,-1.2366,-1.2343,-1.2283,-1.2259,-1.2232,-1.2188,-1.2159,-1.2115,-1.2095,-1.2046,-1.2018,-1.198,-1.1949,-1.1961,-1.1882,-1.1892,-1.1864,-1.1865,-1.1847,-1.1848,-1.1788,-1.1833,-1.1833,-1.1833,-1.1834,0,-1.2445,-1.2402,-1.2357,-1.2325,-1.2275,-1.2246,-1.2197,-1.2169,-1.213,-1.2091,-1.2072,-1.2035,-1.1998,-1.1956,-1.1932,-1.1877,-1.1865,-1.1848,-1.1842,-1.1849,-1.1851,-1.183,-1.1832,-1.1832,-1.1832,-1.1832,-1.1833,0,-1.2417,-1.2385,-1.2327,-1.2274,-1.226,-1.2226,-1.218,-1.2147,-1.2121,-1.2071,-1.2057,-1.2015,-1.1964,-1.193,-1.1865,-1.1849,-1.1789,-1.1784,-1.1804,-1.1801,-1.1774,-1.1776,-1.1697,-1.1684,-1.174,-1.1739,-1.1739,0,-1.2388,-1.2354,-1.2299,-1.2271,-1.2245,-1.2201,-1.2171,-1.214,-1.2109,-1.2055,-1.2028,-1.1976,-1.1933,-1.1853,-1.1815,-1.1765,-1.1757,-1.1733,-1.175,-1.1757,-1.1755,-1.1756,-1.1752,-1.173,-1.1729,-1.1729,-1.1729,0,-1.2339,-1.2325,-1.2283,-1.2235,-1.2199,-1.216,-1.212,-1.2098,-1.206,-1.2026,-1.1975,-1.1941,-1.1875,-1.1823,-1.1769,-1.174,-1.1727,-1.1724,-1.1715,-1.172,-1.1733,-1.1724,-1.1795,-1.1726,-1.1726,-1.1726,-1.1726,-1.1727,-1.2308,-1.2277,-1.2233,-1.2186,-1.2153,-1.2116,-1.2082,-1.2051,-1.2008,-1.1952,-1.1936,-1.1882,-1.1836,-1.1763,-1.1733,-1.1689,-1.1691,-1.1678,-1.1674,-1.1671,-1.167,-1.1741,-1.1679,-1.1679,-1.1679,-1.1679,-1.1679,0,-1.2257,-1.2228,-1.2185,-1.213,-1.2093,-1.2086,-1.2041,-1.2009,-1.1962,-1.1921,-1.1879,-1.1819,-1.1768,-1.1727,-1.1674,-1.1647,-1.1639,-1.1634,-1.1634,-1.1628,-1.1672,-1.1684,-1.1641,-1.1641,-1.1641,-1.1641,-1.1641,-1.1641,-1.2226,-1.2172,-1.2153,-1.2082,-1.2052,-1.2,-1.1974,-1.1939,-1.1906,-1.184,-1.1798,-1.1772,-1.173,-1.1674,-1.1627,-1.1616,-1.1596,-1.1592,-1.1579,-1.1621,-1.1625,-1.1629,-1.164,-1.1588,-1.1588,-1.1538,-1.1538,-1.1538]},{"header":{"parameterUnit":"m.s-1","parameterCategory":1,"la1":30.2991,"la2":30.254,"lo1":-89.0895,"lo2":-89.0444,"dy":0.0017,"dx":0.0017,"nx":28,"ny":28,"refTime":"2023-04-22T21:00:00:Z","depth":0,"parameterNumber":3,"parameterNumberName":"V-component_of_WINDS"},"data":[0,0,0,0,0,0,0,0,0,0,0,0,0,0,0,0,0,0,0,0,0,0,0,0,0,0,0,0,0,0,0,0,0,0,0,0,0,0,0,0,0,0,0,0,0,0,0,0,0,0,0,0,0,0,0,0,0,0,-2.7937,-2.7937,0,-2.7949,-2.7949,-2.7949,-2.8025,-2.8027,-2.8029,-2.8031,-2.8038,-2.8037,-2.8035,0,0,0,0,0,0,0,0,0,0,0,0,0,-2.7977,-2.7976,-2.7937,-2.7937,-2.7937,-2.7949,-2.7949,-2.7949,-2.8025,-2.8027,-2.803,-2.8032,-2.8039,-2.8037,-2.8035,0,0,0,0,0,0,0,0,0,0,0,0,0,-2.7971,-2.7975,-2.7937,-2.7977,-2.798,-2.7949,-2.7949,-2.7949,-2.8025,-2.8027,-2.803,-2.8033,-2.8039,-2.8037,-2.8035,-2.7964,0,0,-2.8027,-2.8026,0,0,0,0,0,0,0,0,-2.7971,-2.7969,-2.7971,-2.7974,-2.7978,-2.7989,-2.7966,-2.7954,-2.8024,-2.8008,-2.8031,-2.8034,-2.8019,-2.8019,-2.8014,-2.7964,-2.7965,-2.8027,-2.8026,-2.8025,-2.8024,0,0,0,0,0,0,0,-2.7972,-2.7969,-2.7941,-2.7971,-2.7975,-2.7993,-2.7995,-2.7964,-2.7997,-2.8009,-2.8015,-2.8016,-2.8022,-2.8016,-2.8015,-2.7965,-2.8027,-2.8025,-2.8024,-2.8023,-2.786,-2.7857,0,0,0,0,0,0,-2.7967,-2.7969,-2.7941,-2.7942,-2.7982,-2.799,-2.7993,-2.7982,-2.7998,-2.8003,-2.8013,-2.8019,-2.8019,-2.8018,-2.8016,-2.7935,-2.8025,-2.8023,-2.8021,-2.7863,-2.7859,-2.7856,0,0,0,0,0,0,-2.7968,-2.7964,-2.7941,-2.7957,-2.7956,-2.7986,-2.7974,-2.7981,-2.7976,-2.8001,-2.8007,-2.8002,-2.8021,-2.8019,-2.7977,-2.7937,-2.8022,-2.802,-2.7866,-2.7862,-2.7858,-2.7773,0,0,0,0,0,0,-2.7968,-2.7964,-2.7937,-2.7956,-2.7954,-2.7902,-2.7972,-2.7979,-2.7973,-2.798,-2.7992,-2.7997,-2.8023,-2.798,-2.7975,-2.7935,-2.8018,-2.787,-2.7864,-2.7859,-2.778,-2.7767,-2.7755,0,0,0,0,0,-2.797,-2.7912,-2.7936,-2.7932,-2.7923,-2.79,-2.7899,-2.7932,-2.7969,-2.7943,-2.7959,-2.7996,-2.7942,-2.7975,-2.797,-2.7929,-2.7873,-2.7866,-2.7859,-2.7785,-2.7769,-2.7755,0,0,0,0,0,0,-2.7885,-2.7915,-2.7942,-2.7888,-2.7891,-2.7913,-2.7881,-2.7914,-2.7905,-2.7912,-2.7953,-2.7955,-2.7907,-2.7914,-2.795,-2.7862,-2.7914,-2.7906,-2.7859,-2.7844,-2.7832,-2.7831,-2.8016,0,0,0,0,0,-2.786,-2.7841,-2.7867,-2.7817,-2.7818,-2.7849,-2.784,-2.7866,-2.787,-2.7871,-2.7884,-2.7885,-2.7869,-2.7857,-2.7843,-2.7782,-2.7786,-2.7751,-2.7739,-2.7728,-2.7721,-2.769,-2.7675,-2.7834,-2.7834,-2.7835,0,0,-2.7808,-2.7822,-2.7807,-2.7801,-2.7806,-2.7784,-2.7849,-2.7822,-2.7807,-2.7866,-2.7829,-2.7838,-2.7843,-2.7791,-2.7769,-2.7795,-2.7678,-2.772,-2.7712,-2.7709,-2.7682,-2.7666,-2.7653,-2.783,-2.7831,-2.7831,0,0,-2.7703,-2.7711,-2.7672,-2.7677,-2.7686,-2.7707,-2.7698,-2.7715,-2.7725,-2.7688,-2.7733,-2.7714,-2.7685,-2.7686,-2.7683,-2.7582,-2.7616,-2.7576,-2.7512,-2.7481,-2.7469,-2.7458,-2.7422,-2.7409,-2.7569,-2.7569,-2.7568,0,-2.7637,-2.7607,-2.7647,-2.7618,-2.7614,-2.7671,-2.7631,-2.7633,-2.7636,-2.7631,-2.7662,-2.7628,-2.7634,-2.7585,-2.7561,-2.7556,-2.7546,-2.7574,-2.7468,-2.7457,-2.7447,-2.7414,-2.74,-2.7564,-2.7564,-2.7565,-2.7565,0,-2.7526,-2.7504,-2.7471,-2.7475,-2.7468,-2.7433,-2.7468,-2.7455,-2.7483,-2.7501,-2.7463,-2.7474,-2.7464,-2.7455,-2.7479,-2.7409,-2.7425,-2.7461,-2.7513,-2.7427,-2.7396,-2.7383,-2.7557,-2.7559,-2.756,-2.7561,0,0,-2.7364,-2.7394,-2.7381,-2.7384,-2.7399,-2.7383,-2.7352,-2.7345,-2.7333,-2.7334,-2.7308,-2.7284,-2.7318,-2.7315,-2.7341,-2.7314,-2.7235,-2.7354,-2.7354,-2.7331,-2.7158,-2.7131,-2.7116,-2.7258,-2.7256,-2.7254,-2.7158,0,-2.7263,-2.7213,-2.725,-2.7193,-2.7174,-2.7229,-2.7202,-2.7208,-2.7224,-2.721,-2.7229,-2.7211,-2.7257,-2.7256,-2.7232,-2.7249,-2.72,-2.7257,-2.7234,-2.7233,-2.7231,-2.7099,-2.707,-2.6979,-2.7146,-2.7144,-2.7143,0,-2.7138,-2.7136,-2.7078,-2.71,-2.7093,-2.7068,-2.7066,-2.7052,-2.706,-2.7075,-2.7072,-2.7106,-2.7077,-2.713,-2.709,-2.7128,-2.7121,-2.7128,-2.7125,-2.7124,-2.7182,-2.7094,-2.695,-2.6937,-2.7124,-2.7126,-2.7127,0,-2.7026,-2.7009,-2.6973,-2.6974,-2.6998,-2.698,-2.6989,-2.7,-2.6994,-2.6992,-2.6989,-2.6982,-2.6978,-2.6972,-2.7003,-2.7038,-2.6959,-2.7014,-2.697,-2.6969,-2.6949,-2.695,-2.6802,-2.6945,-2.6945,-2.6946,-2.6946,0,-2.691,-2.6872,-2.6924,-2.6901,-2.6861,-2.6904,-2.6862,-2.6877,-2.6887,-2.6868,-2.6915,-2.6895,-2.6938,-2.6923,-2.6948,-2.6911,-2.6909,-2.6919,-2.6926,-2.6915,-2.6914,-2.691,-2.6917,-2.6942,-2.6943,-2.6944,-2.6944,0,-2.6777,-2.6811,-2.6775,-2.6802,-2.6808,-2.6777,-2.68,-2.678,-2.6802,-2.6777,-2.6774,-2.6806,-2.6792,-2.6823,-2.6812,-2.6828,-2.6777,-2.6794,-2.6775,-2.678,-2.6733,-2.6737,-2.6578,-2.6559,-2.6714,-2.6713,-2.6712,0,-2.67,-2.6673,-2.6698,-2.669,-2.6697,-2.6683,-2.6679,-2.672,-2.6713,-2.6722,-2.6701,-2.6691,-2.6685,-2.6659,-2.6681,-2.6673,-2.669,-2.6635,-2.6689,-2.6679,-2.6689,-2.669,-2.6688,-2.6623,-2.6621,-2.6619,-2.6618,0,-2.6559,-2.6579,-2.6571,-2.657,-2.6564,-2.6564,-2.6568,-2.6558,-2.6602,-2.6592,-2.6579,-2.6575,-2.6565,-2.6554,-2.6552,-2.6561,-2.6596,-2.6602,-2.6591,-2.6579,-2.6569,-2.6574,-2.6744,-2.6605,-2.6606,-2.6607,-2.6608,-2.6608,-2.6452,-2.6432,-2.6448,-2.6438,-2.6446,-2.6449,-2.6433,-2.6454,-2.6444,-2.6441,-2.6466,-2.6448,-2.6459,-2.6461,-2.6465,-2.6451,-2.6476,-2.646,-2.6456,-2.6452,-2.6444,-2.6572,-2.6451,-2.6451,-2.6452,-2.6452,-2.6452,0,-2.6315,-2.6329,-2.632,-2.6325,-2.6318,-2.6356,-2.6363,-2.6353,-2.6338,-2.6346,-2.634,-2.6326,-2.6317,-2.634,-2.6334,-2.6318,-2.6334,-2.6315,-2.6316,-2.6318,-2.6422,-2.6432,-2.6302,-2.6302,-2.6302,-2.6302,-2.6302,-2.6302,-2.6242,-2.621,-2.6231,-2.6203,-2.6217,-2.6202,-2.6202,-2.6205,-2.6213,-2.6196,-2.6189,-2.6205,-2.6219,-2.6216,-2.6209,-2.6216,-2.6211,-2.6186,-2.6198,-2.6295,-2.631,-2.6324,-2.6334,-2.6185,-2.6184,-2.6095,-2.6094,-2.6093]}]]